Regional Weather Roundup
Issued by NWS

Home | Current Version | Previous Version | Graphics & Text | Print | Product List | Glossary On
Versions: 1 2 3 4 5 6 7 8 9 10 11 12 13 14 15 16 17 18 19 20 21 22 23 24 25 26 27 28 29 30 31 32 33 34 35 36 37 38 39 40 41 42 43 44 45 46 47 48 49 50
000
ASUS43 KDTX 021110
RWRMI
MICHIGAN HOURLY REGIONAL WEATHER ROUNDUP
NATIONAL WEATHER SERVICE DETROIT/PONTIAC MI
700 AM EDT THU OCT 02 2014

NOTE: "FAIR" INDICATES FEW OR NO CLOUDS BELOW 12,000 FEET WITH NO
SIGNIFICANT WEATHER AND/OR OBSTRUCTION TO VISIBILITY.

MIZ047>049-052>055-059>063-066>070-074>076-081>083-021200-
SOUTHEAST LOWER MICHIGAN

CITY           SKY/WX    TMP DP  RH WIND       PRES   REMARKS
ADRIAN         MOCLDY    51  50  96 SE3       30.04R FOG
ALMA           CLOUDY    56  56  97 SE3       29.99R FOG
ANN ARBOR      CLEAR     51  48  89 CALM      30.04R FOG
BAD AXE        CLOUDY    57  57 100 S9        30.03S FOG
CARO           CLOUDY    58  57  98 SE8       30.00S FOG
DETROIT CITY   FOG       57  55  93 CALM      30.05S VSB 1/4
DETROIT        FOG       54  54 100 CALM      30.04R VSB 3/4
FLINT          MOCLDY    60  56  86 SE9       30.01S FOG
GROSSE ILE     CLEAR     61  57  88 S7        30.03R
HILLSDALE      CLOUDY    55  54  97 SE7       30.01S FOG
HOWELL         MOCLDY    55  55  99 SE7       30.02R FOG

CITY           SKY/WX    TMP DP  RH WIND       PRES   REMARKS
JACKSON        CLOUDY    54  52  93 SE7       30.02R
LAMBERTVILLE     N/A     50  46  87 CALM      30.04R FOG
LANSING        CLOUDY    57  53  86 SE10      29.99S
LAPEER         CLOUDY    58  56  96 S6        30.03R FOG
MASON          CLOUDY    55  52  91 SE7       30.00R FOG
MONROE         FOG       48  46  93 CALM      30.03R VSB 1
MT. CLEMENS    CLOUDY    61  61 100 S7        30.02R FOG
PONTIAC        FOG       58  57  97 SE6       30.03R VSB 3/4
PORT HOPE        N/A     59  57  93 S6        30.01F
PORT HURON     FOG       57  57 100 SE7       30.04R VSB 3/4
TRI CITIES     CLOUDY    57  55  93 SE7       30.01R
TROY           FOG       58  56  94 CALM      30.05R VSB<1/4
SAGINAW HB     CLOUDY    55  55 100 SE5       30.00R FOG
$$
MIZ043>046-050>051-056>058-064>065-071>073-077>080-021200-
SOUTHWEST LOWER MICHIGAN

CITY           SKY/WX    TMP DP  RH WIND       PRES   REMARKS
BATTLE CREEK   CLOUDY    59  50  72 SE8       29.98R
BENTON HARBOR  HVY RAIN  57  55  93 E5        29.92S FOG
BIG RAPIDS     CLOUDY    55  55 100 SE9       29.95S FOG
COLDWATER      MOCLDY    58  52  81 SE8       29.98S
FREMONT        RAIN      56  52  85 SE6       29.93S
GRAND RAPIDS   CLOUDY    59  54  83 S8        29.96S
IONIA          CLOUDY    57  55  92 S3        29.98R
LUDINGTON      RAIN      57  54  88 SE6       29.92R
MARSHALL       CLOUDY    56  51  83 SE5       29.98R
MOUNT PLEASANT CLOUDY    55  55  98 SE3       29.98S FOG
MUSKEGON       LGT RAIN  59  53  80 SE9       29.92F
SOUTH HAVEN    LGT RAIN  59  55  86 S5        29.93S
$$
MIZ016>042-021200-
NORTHERN LOWER MICHIGAN

CITY           SKY/WX    TMP DP  RH WIND       PRES   REMARKS
ALPENA         CLOUDY    55  55 100 SE8       29.99S FOG
BEAVER ISLAND  RAIN      56  55  95 SE6       29.93F
BELLAIRE       CLOUDY    59  52  78 S5        29.95S
CADILLAC       CLOUDY    55  52  87 SE7       29.95R
CHARLEVOIX     LGT RAIN  57  54  91 N3        29.97R
FRANKFORT      LGT RAIN  57  53  85 CALM      29.90S
GAYLORD        CLOUDY    54  52  93 S10       29.97S
GRAYLING       CLOUDY    55  55  99 CALM      29.98S FOG
HARBOR SPRINGS CLOUDY    55  53  92 E5        29.96S FOG
HOUGHTON LAKE  CLOUDY    54  52  93 S12       29.99R
OSCODA         CLOUDY    56  56 100 S5        29.99S FOG
PELLSTON       CLOUDY    54  54 100 S3        29.97F FOG
ROGERS CITY    CLOUDY    56  56 100 SE8       30.00S FOG
TRAVERSE CITY  CLOUDY    59  50  72 CALM      29.92S
$$
MIZ007>008-015-021200-
EASTERN UPPER MICHIGAN

CITY           SKY/WX    TMP DP  RH WIND       PRES   REMARKS
MACKINAC ISLAN CLOUDY    56  56  98 SE3       29.97S FOG
NEWBERRY       RAIN      55  54  97 SE8       29.94S
S. S. MARIE    LGT RAIN  56  54  93 SE5       29.98R FOG
MUNISING         N/A     57  54  89 S7        29.90R
$$
MIZ004>006-011>014-085-021200-
CENTRAL UPPER MICHIGAN

CITY           SKY/WX    TMP DP  RH WIND       PRES   REMARKS
MANISTIQUE     RAIN      56  55  99 SE7       29.92S
SAWYER-GWINN   CLOUDY    54  52  94 S7        29.89R FOG
$$
MIZ001>003-009>011-084-021200-
WESTERN UPPER MICHIGAN

CITY           SKY/WX    TMP DP  RH WIND       PRES   REMARKS
IRON MOUNTAIN  FOG       53  52  96 CALM      29.87S VSB 1
HOUGHTON       CLOUDY    55  51  86 S5        29.85R
COPPER HARBOR    N/A     55  52  89 SW7       29.85R
$$

ABBREVIATIONS USED IN REMARKS
   TC - TEMPERATURE IN CELSIUS
  WCI - WIND CHILL INDEX
   HX - HEAT INDEX
  VSB - VISIBILITY



USA.gov is the U.S. government's official web portal to all federal, state and local government web resources and services.